Location: Unspecified
(0.0000°N, 0.0000°E)
Time: 01:08:00
(UTC+00:00)

CUBESAT XI-V - Pass Details

Date: 13 December 2017
Orbit: 670 x 693 km, 97.9° (Epoch: 19 July)

Event Time Altitude Azimuth Distance (km) Brightness Sun altitude
Rises 04:05:57 0° 177° (S) 3,018 ? -24.7°
Reaches altitude 10° 04:08:13 10° 182° (S) 2,104 ? -24.2°
Enters shadow 04:12:10 50° 233° (SW) 862 ? -23.3°
